Location: Caltech
(34.1382°N, 118.1253°W)
Time: 13:59:05
(UTC-07:00)

Cosmos 2237 Rocket - Visible Passes

Search period start: 18 April 2014 00:00
Search period end: 28 April 2014 00:00
Orbit: 837 x 849 km, 71.0° (Epoch: 17 April)

Date Brightness Start Highest point End Pass type
(mag) Time Alt. Az. Time Alt. Az. Time Alt. Az.
18 Apr 4.5 21:23:01 10° NW 21:26:52 19° W 21:30:44 10° SW visible
19 Apr 4.5 21:08:10 10° NW 21:12:11 20° W 21:16:11 10° SSW visible
20 Apr 4.5 20:53:19 10° NW 20:57:28 22° W 21:01:37 10° SSW visible
21 Apr 4.5 20:38:30 10° NW 20:42:46 23° W 20:47:03 10° SSW visible
22 Apr 4.4 20:23:40 10° NW 20:28:04 24° WSW 20:32:28 10° SSW visible
23 Apr 4.4 20:08:51 10° NW 20:13:22 25° WSW 20:17:52 10° SSW visible
24 Apr 4.4 19:54:02 10° NW 19:58:39 27° WSW 20:03:16 10° SSW visible
